Terminal Aerodrome Forecast
Issued by NWS

Home | Current Version | Previous Version | Text Only | Print | Product List | Glossary On
Versions: 1 2 3 4 5 6 7 8 9 10 11 12 13 14 15 16 17 18 19 20 21 22 23 24 25 26 27 28 29 30 31 32 33 34 35 36 37 38 39 40 41 42 43 44
000
FTUS46 KPQR 041728
TAFONP
TAF
KONP 041728Z 0418/0518 33010KT P6SM SKC
     FM050400 29005KT 5SM BR OVC005
     FM051600 VRB03KT P6SM FEW005=

USA.gov is the U.S. government's official web portal to all federal, state and local government web resources and services.